DG5TKE Weather Reports


time (UTC)temp
C
wind
direction
speed
KPH
gust
KPH
rain 1hr
cm
rain 24hr
cm
rain mn
cm
humidity
%
barometer
mb
20260831030006 15 205 3.2 4.8 0.00 0.00 0.00 82 1009.4
20260831025003 15 215 3.2 8.0 0.00 0.00 0.00 83 1009.2
20260831024218 15 207 3.2 8.0 0.00 0.00 0.00 83 1009.1
20260831023003 15 216 3.2 6.4 0.00 0.00 0.00 83 1009.0
20260831022006 15 197 1.6 8.0 0.00 0.00 0.00 83 1009.4
20260831021006 15 0 0.0 0.0 0.00 0.00 0.00 83 1009.6
20260831020217 15 0 0.0 0.0 0.00 0.00 0.00 82 1009.6
20260831015003 15 0 0.0 3.2 0.00 0.00 0.00 82 1009.5
20260831014003 15 0 1.6 0.0 0.00 0.00 0.00 82 1009.4
20260831013217 15 200 1.6 8.0 0.00 0.00 0.00 82 1009.6
20260831012003 15 221 0.0 4.8 0.00 0.00 0.00 82 1009.8
20260831011003 15 213 1.6 4.8 0.00 0.00 0.00 82 1009.7
20260831010006 15 224 1.6 6.4 0.00 0.00 0.00 82 1009.9
20260831005006 15 225 1.6 4.8 0.00 0.00 0.00 82 1010.1
20260831004221 15 223 3.2 8.0 0.00 0.00 0.00 82 1010.1
20260831003217 15 221 1.6 4.8 0.00 0.00 0.00 81 1010.2
20260831002006 15 0 0.0 0.0 0.00 0.00 0.00 81 1010.3
20260831001217 15 0 0.0 0.0 0.00 0.00 0.00 80 1010.3
20260831000003 15 0 0.0 0.0 0.00 0.00 0.00 80 1010.4
20260830235003 16 219 1.6 4.8 0.00 0.00 0.00 80 1010.5
20260830234006 16 204 1.6 4.8 0.00 0.00 0.00 80 1010.6
20260830233007 16 192 0.0 6.4 0.00 0.00 0.00 80 1010.7
20260830232218 16 0 0.0 0.0 0.00 0.00 0.00 79 1010.8
20260830231006 16 0 0.0 0.0 0.00 0.00 0.00 79 1010.9
20260830230003 16 0 0.0 0.0 0.00 0.00 0.00 79 1010.8
20260830225003 16 0 0.0 0.0 0.00 0.00 0.00 79 1010.8
20260830224003 16 0 0.0 0.0 0.00 0.00 0.00 79 1010.8
20260830223006 16 0 0.0 0.0 0.00 0.00 0.00 79 1010.8
20260830222006 16 0 0.0 0.0 0.00 0.00 0.00 79 1010.9
20260830221003 16 0 0.0 0.0 0.00 0.00 0.00 78 1010.9
20260830220004 17 0 0.0 0.0 0.00 0.00 0.00 78 1010.8
20260830215006 17 0 0.0 0.0 0.00 0.00 0.00 78 1010.8
20260830214003 17 0 0.0 0.0 0.00 0.00 0.00 78 1010.8
20260830213006 17 0 0.0 0.0 0.00 0.00 0.00 78 1010.8
20260830212003 17 0 0.0 0.0 0.00 0.00 0.00 78 1010.8
20260830211003 17 0 0.0 0.0 0.00 0.00 0.00 78 1010.8
20260830210007 17 0 0.0 0.0 0.00 0.00 0.00 77 1010.8
20260830205003 17 0 0.0 0.0 0.00 0.00 0.00 78 1010.8
20260830204006 18 0 0.0 0.0 0.00 0.00 0.00 77 1010.8
20260830203003 18 0 0.0 0.0 0.00 0.00 0.00 76 1010.8
20260830202217 18 223 1.6 3.2 0.00 0.00 0.00 76 1010.8
20260830201003 18 0 0.0 3.2 0.00 0.00 0.00 75 1010.8
20260830200007 18 0 0.0 0.0 0.00 0.00 0.00 74 1010.8
20260830195006 18 242 1.6 1.6 0.00 0.00 0.00 73 1010.9
20260830194003 19 249 1.6 3.2 0.00 0.00 0.00 72 1010.9
20260830193003 20 0 0.0 3.2 0.00 0.00 0.00 70 1010.8
20260830192221 20 331 0.0 1.6 0.00 0.00 0.00 69 1010.8
20260830191006 20 266 3.2 6.4 0.00 0.00 0.00 66 1010.8
20260830190007 20 261 3.2 6.4 0.00 0.00 0.00 65 1010.8
20260830185006 21 271 3.2 4.8 0.00 0.00 0.00 65 1010.7
20260830184003 21 263 3.2 6.4 0.00 0.00 0.00 64 1010.7
20260830183003 21 270 3.2 9.7 0.00 0.00 0.00 64 1010.5
20260830182003 21 272 3.2 6.4 0.00 0.00 0.00 63 1010.5
20260830181003 21 265 3.2 4.8 0.00 0.00 0.00 63 1010.3
20260830180220 22 262 3.2 4.8 0.00 0.00 0.00 62 1010.2
20260830175003 22 262 1.6 4.8 0.00 0.00 0.00 61 1010.2
20260830174218 22 266 1.6 3.2 0.00 0.00 0.00 60 1010.2
20260830173003 23 271 1.6 4.8 0.00 0.00 0.00 58 1010.0
20260830172006 23 289 3.2 8.0 0.00 0.00 0.00 57 1010.0
20260830171220 23 283 3.2 11.3 0.00 0.00 0.00 57 1010.0
20260830170220 23 280 1.6 9.7 0.00 0.00 0.00 57 1010.0
20260830165006 23 277 4.8 9.7 0.00 0.00 0.00 56 1009.9
20260830164003 23 281 4.8 9.7 0.00 0.00 0.00 56 1009.9
20260830163003 23 287 3.2 12.9 0.00 0.00 0.00 56 1009.9
20260830162003 23 288 3.2 4.8 0.00 0.00 0.00 56 1009.9
20260830161004 24 289 4.8 16.1 0.00 0.00 0.00 55 1009.8
20260830160007 24 275 6.4 14.5 0.00 0.00 0.00 55 1009.8
20260830155219 24 289 4.8 16.1 0.00 0.00 0.00 54 1009.7
20260830154003 25 275 8.0 20.9 0.00 0.00 0.00 53 1009.7
20260830153003 25 281 6.4 19.3 0.00 0.00 0.00 52 1009.7
20260830152221 25 282 6.4 16.1 0.00 0.00 0.00 52 1009.7
20260830151003 25 290 6.4 17.7 0.00 0.00 0.00 51 1009.6
20260830150221 26 287 6.4 17.7 0.00 0.00 0.00 50 1009.8
20260830145003 26 248 6.4 20.9 0.00 0.00 0.00 45 1009.8
20260830144006 26 225 8.0 20.9 0.00 0.00 0.00 47 1009.8
20260830143223 26 211 6.4 20.9 0.00 0.00 0.00 45 1009.7
20260830142003 26 216 11.3 17.7 0.00 0.00 0.00 47 1009.6
20260830141006 26 210 9.7 29.0 0.00 0.00 0.00 46 1009.7
20260830140003 26 227 11.3 24.1 0.00 0.00 0.00 47 1009.6
20260830135006 26 221 8.0 22.5 0.00 0.00 0.00 48 1009.6
20260830134221 26 233 8.0 17.7 0.00 0.00 0.00 47 1009.7
20260830133006 26 233 11.3 32.2 0.00 0.00 0.00 47 1009.7
20260830132006 26 215 11.3 20.9 0.00 0.00 0.00 48 1009.7
20260830131006 26 209 9.7 27.4 0.00 0.00 0.00 46 1009.7
20260830130003 26 234 8.0 20.9 0.00 0.00 0.00 48 1009.6
20260830125006 25 227 12.9 24.1 0.00 0.00 0.00 48 1009.7
20260830124218 25 216 14.5 32.2 0.00 0.00 0.00 48 1009.7
20260830123222 25 214 14.5 35.4 0.00 0.00 0.00 48 1009.7
20260830122008 25 219 8.0 24.1 0.00 0.00 0.00 52 1009.8
20260830121003 24 235 11.3 27.4 0.00 0.00 0.00 53 1009.8
20260830120006 25 221 11.3 22.5 0.00 0.00 0.00 51 1009.8
20260830115218 25 220 11.3 24.1 0.00 0.00 0.00 51 1009.8
20260830114003 25 227 11.3 25.7 0.00 0.00 0.00 53 1009.8
20260830113003 25 219 9.7 25.7 0.00 0.00 0.00 54 1009.6
20260830112003 25 247 6.4 25.7 0.00 0.00 0.00 55 1009.8
20260830111003 24 239 8.0 16.1 0.00 0.00 0.00 60 1009.7
20260830110218 24 291 8.0 16.1 0.00 0.00 0.00 61 1009.9
20260830105003 25 251 11.3 17.7 0.00 0.00 0.00 60 1009.9
20260830104003 24 231 11.3 30.6 0.00 0.00 0.00 55 1009.7
20260830103003 24 220 11.3 25.7 0.00 0.00 0.00 58 1009.7
20260830102006 23 220 14.5 29.0 0.00 0.00 0.00 60 1009.9
20260830101222 23 228 12.9 27.4 0.00 0.00 0.00 59 1010.0
20260830100006 23 218 12.9 32.2 0.00 0.00 0.00 60 1010.0
20260830095006 23 222 16.1 37.0 0.00 0.00 0.00 60 1010.1
20260830094217 23 238 14.5 30.6 0.00 0.00 0.00 61 1010.1
20260830093217 23 212 16.1 38.6 0.00 0.00 0.00 62 1010.1
20260830092003 22 217 12.9 29.0 0.00 0.00 0.00 62 1010.1
20260830091221 23 214 11.3 29.0 0.00 0.00 0.00 62 1010.0
20260830090007 23 204 11.3 22.5 0.00 0.00 0.00 63 1010.0
20260830085006 23 207 14.5 33.8 0.00 0.00 0.00 63 1010.0
20260830084006 22 206 14.5 38.6 0.00 0.00 0.00 62 1009.9
20260830083006 22 206 12.9 30.6 0.00 0.00 0.00 63 1009.9
20260830082006 22 206 11.3 27.4 0.00 0.00 0.00 64 1009.9
20260830081221 22 205 11.3 29.0 0.00 0.00 0.00 64 1009.8
20260830080004 22 201 14.5 29.0 0.00 0.00 0.00 65 1009.8
20260830075006 21 201 16.1 37.0 0.00 0.00 0.00 65 1009.7
20260830074003 22 203 12.9 35.4 0.00 0.00 0.00 64 1009.6
20260830073003 22 207 14.5 27.4 0.00 0.00 0.00 66 1009.6
20260830072006 21 208 12.9 30.6 0.00 0.00 0.00 66 1009.4
20260830071006 21 208 9.7 27.4 0.00 0.00 0.00 67 1009.4
20260830070007 21 199 9.7 22.5 0.00 0.00 0.00 68 1009.4
20260830065003 21 206 6.4 19.3 0.00 0.00 0.00 69 1009.5
20260830064218 21 192 6.4 14.5 0.00 0.00 0.00 70 1009.5
20260830063003 21 216 4.8 14.5 0.00 0.00 0.00 70 1009.4
20260830062006 21 195 4.8 14.5 0.00 0.00 0.00 72 1009.4
20260830061220 20 183 4.8 12.9 0.00 0.00 0.00 72 1009.3
20260830060003 20 186 6.4 16.1 0.00 0.00 0.00 72 1009.3
20260830055003 20 189 11.3 22.5 0.00 0.00 0.00 73 1009.2
20260830054007 19 187 9.7 27.4 0.00 0.00 0.00 73 1009.3
20260830053006 19 191 8.0 20.9 0.00 0.00 0.00 73 1009.4
20260830052218 19 189 8.0 22.5 0.00 0.00 0.00 74 1009.4
20260830051003 18 197 6.4 19.3 0.00 0.00 0.00 74 1009.2
20260830050003 18 191 4.8 14.5 0.00 0.00 0.00 74 1009.2
20260830045003 18 184 6.4 14.5 0.00 0.00 0.00 73 1009.1
20260830044003 18 181 4.8 14.5 0.00 0.00 0.00 73 1009.2
20260830043006 18 189 6.4 17.7 0.00 0.00 0.00 73 1009.1
20260830042003 18 193 6.4 16.1 0.00 0.00 0.00 73 1009.1
20260830041006 18 193 4.8 17.7 0.00 0.00 0.00 73 1009.0
20260830040006 18 193 4.8 12.9 0.00 0.00 0.00 73 1009.1
20260830035007 18 189 4.8 14.5 0.00 0.00 0.00 72 1009.1
20260830034003 18 200 4.8 11.3 0.00 0.00 0.00 72 1009.2
20260830033003 18 191 4.8 12.9 0.00 0.00 0.00 71 1009.1
20260830032003 18 197 4.8 16.1 0.00 0.00 0.00 71 1009.1
20260830031008 18 204 4.8 12.9 0.00 0.00 0.00 71 1009.2